DM5RC Weather Reports


time (UTC)temp
C
wind
direction
speed
KPH
gust
KPH
rain 1hr
cm
rain 24hr
cm
rain mn
cm
humidity
%
barometer
mb
20260505083318 15 37 1.6 4.8 0.30 0.41 0.08 90 1008.5
20260505082838 15 31 1.6 3.2 0.30 0.41 0.08 90 1008.5
20260505082320 15 60 1.6 3.2 0.30 0.41 0.08 90 1008.5
20260505081823 15 98 1.6 3.2 0.20 0.30 0.05 89 1008.6
20260505081325 15 116 1.6 3.2 0.20 0.20 0.05 88 1008.6
20260505080828 15 131 1.6 3.2 0.20 0.20 0.05 87 1008.6
20260505080329 16 131 0.0 0.0 0.20 0.20 0.05 88 1008.8
20260505075831 16 131 0.0 3.2 0.20 0.20 0.05 88 1008.9
20260505075333 16 131 0.0 3.2 0.20 0.20 0.05 87 1008.8
20260505074851 16 118 0.0 3.2 0.10 0.10 0.03 87 1008.8
20260505074353 16 123 0.0 3.2 0.10 0.10 0.03 87 1008.9
20260505073834 16 60 0.0 1.6 0.10 0.10 0.03 87 1008.9
20260505073332 16 60 0.0 3.2 0.10 0.10 0.03 88 1008.8
20260505072830 16 60 1.6 3.2 0.10 0.10 0.03 88 1008.8
20260505072329 16 60 0.0 4.8 0.10 0.10 0.03 87 1008.8
20260505071830 16 59 1.6 4.8 0.10 0.10 0.03 87 1008.7
20260505071329 16 59 1.6 4.8 0.00 0.00 0.00 86 1008.8
20260505070852 16 65 1.6 4.8 0.00 0.00 0.00 85 1008.8
20260505070318 16 63 1.6 4.8 0.00 0.00 0.00 85 1008.8
20260505065842 16 63 0.0 3.2 0.00 0.00 0.00 85 1008.8
20260505065324 16 63 0.0 3.2 0.00 0.00 0.00 85 1008.9
20260505064827 16 63 0.0 3.2 0.00 0.00 0.00 85 1008.9
20260505064331 16 63 1.6 3.2 0.00 0.00 0.00 85 1008.8
20260505063830 16 63 0.0 3.2 0.00 0.00 0.00 85 1008.9
20260505063332 16 63 0.0 3.2 0.00 0.00 0.00 84 1008.9
20260505062831 16 63 1.6 4.8 0.00 0.00 0.00 84 1008.9
20260505062331 16 63 3.2 6.4 0.00 0.00 0.00 84 1008.8
20260505061339 16 63 1.6 8.0 0.00 0.00 0.00 83 1008.8
20260505060818 16 6 4.8 8.0 0.00 0.00 0.00 83 1008.8
20260505060321 16 20 3.2 4.8 0.00 0.00 0.00 83 1008.7
20260505055823 15 44 3.2 6.4 0.00 0.00 0.00 84 1008.7
20260505055326 15 45 3.2 6.4 0.00 0.00 0.00 84 1008.7
20260505054842 15 52 3.2 6.4 0.00 0.00 0.00 83 1008.6
20260505054324 15 26 1.6 3.2 0.00 0.00 0.00 84 1008.6
20260505053827 15 44 1.6 4.8 0.00 0.00 0.00 84 1008.6
20260505053330 15 42 3.2 11.3 0.00 0.00 0.00 84 1008.5
20260505052814 15 49 4.8 11.3 0.00 0.00 0.00 84 1008.5
20260505052338 15 36 8.0 12.9 0.00 0.00 0.00 84 1008.5
20260505051819 15 58 4.8 9.7 0.00 0.00 0.00 84 1008.5
20260505051340 15 31 4.8 11.3 0.00 0.00 0.00 84 1008.6
20260505050822 15 67 3.2 11.3 0.00 0.00 0.00 85 1008.7
20260505050324 15 57 4.8 11.3 0.00 0.00 0.00 85 1008.7
20260505041314 15 27 1.6 4.8 0.00 0.00 0.00 85 1009.0
20260505040904 15 6 1.6 8.0 0.00 0.00 0.00 85 1009.0
20260505040328 15 16 3.2 11.3 0.00 0.00 0.00 84 1009.0
20260505035830 15 34 6.4 11.3 0.00 0.00 0.00 84 1009.0
20260505035331 15 57 3.2 8.0 0.00 0.00 0.00 84 1009.0
20260505034813 15 40 3.2 9.7 0.00 0.00 0.00 84 1008.9
20260505034326 15 56 4.8 9.7 0.00 0.00 0.00 84 1008.9
20260505033827 15 41 4.8 9.7 0.00 0.00 0.00 83 1008.9
20260505033328 15 70 4.8 6.4 0.00 0.00 0.00 83 1008.9
20260505032829 15 33 4.8 8.0 0.00 0.00 0.00 83 1008.9
20260505032329 15 60 4.8 8.0 0.00 0.00 0.00 83 1009.0
20260505031822 15 46 3.2 4.8 0.00 0.00 0.00 83 1009.2
20260505031323 15 44 1.6 4.8 0.00 0.00 0.00 83 1009.4
20260505030843 15 62 1.6 4.8 0.00 0.00 0.00 83 1009.4
20260505030344 15 62 1.6 4.8 0.00 0.00 0.00 83 1009.5
20260505025826 15 62 1.6 4.8 0.00 0.00 0.00 83 1009.5
20260505025348 15 65 3.2 6.4 0.00 0.00 0.00 83 1009.4
20260505024830 15 65 3.2 8.0 0.00 0.00 0.00 83 1009.4
20260505024313 15 50 4.8 8.0 0.00 0.00 0.00 82 1009.3
20260505023815 15 59 4.8 9.7 0.00 0.00 0.00 82 1009.3
20260505023318 15 53 4.8 9.7 0.00 0.00 0.00 82 1009.4
20260505022819 15 58 4.8 8.0 0.00 0.00 0.00 82 1009.4
20260505022341 15 61 3.2 4.8 0.00 0.00 0.00 83 1009.5
20260505021822 15 80 0.0 3.2 0.00 0.00 0.00 82 1009.5
20260505021324 15 80 0.0 3.2 0.00 0.00 0.00 83 1009.5
20260505020847 15 80 1.6 4.8 0.00 0.00 0.00 83 1009.6
20260505020346 15 80 1.6 4.8 0.00 0.00 0.00 83 1009.6
20260505015825 15 122 1.6 4.8 0.00 0.00 0.00 84 1009.6
20260505015328 15 20 0.0 1.6 0.00 0.00 0.00 85 1009.6
20260505014829 15 20 0.0 0.0 0.00 0.00 0.00 85 1009.7
20260505014312 15 20 0.0 0.0 0.00 0.00 0.00 85 1009.6
20260505013836 15 20 0.0 3.2 0.00 0.00 0.00 85 1009.7
20260505013338 15 20 0.0 4.8 0.00 0.00 0.00 85 1009.7
20260505012818 15 13 1.6 3.2 0.00 0.00 0.00 85 1009.7
20260505012321 15 2 0.0 4.8 0.00 0.00 0.00 84 1009.7
20260505011823 15 1 1.6 4.8 0.00 0.00 0.00 84 1009.7
20260505011325 15 16 1.6 3.2 0.00 0.00 0.00 85 1009.7
20260505010826 15 22 0.0 0.0 0.00 0.00 0.00 85 1009.9
20260505010325 15 22 0.0 0.0 0.00 0.00 0.00 85 1010.1
20260505005826 15 22 0.0 1.6 0.00 0.00 0.00 85 1010.1
20260505005326 15 22 0.0 3.2 0.00 0.00 0.00 85 1010.1
20260505004847 15 22 0.0 0.0 0.00 0.00 0.00 85 1010.2
20260505004326 15 22 0.0 0.0 0.00 0.00 0.00 85 1010.2
20260505003826 15 22 0.0 0.0 0.00 0.00 0.00 85 1010.2
20260505003327 15 22 0.0 0.0 0.00 0.00 0.00 84 1010.2
20260505002830 15 22 0.0 0.0 0.00 0.00 0.00 84 1010.2
20260505002331 15 22 0.0 0.0 0.00 0.00 0.00 84 1010.3
20260505001813 15 22 0.0 0.0 0.00 0.00 0.00 83 1010.3
20260505001313 15 22 0.0 0.0 0.00 0.00 0.00 83 1010.3
20260505000813 16 22 0.0 1.6 0.00 0.00 0.00 83 1010.4
20260505000314 16 22 0.0 1.6 0.00 0.00 0.00 83 1010.5
20260504235833 16 22 0.0 1.6 0.00 0.00 0.00 83 1010.4
20260504235332 16 22 0.0 1.6 0.00 0.00 0.00 83 1010.5
20260504234813 16 22 0.0 4.8 0.00 0.00 0.00 83 1010.4
20260504234315 16 22 0.0 4.8 0.00 0.00 0.00 83 1010.3
20260504233321 16 20 3.2 4.8 0.00 0.00 0.00 81 1010.4
20260504232821 16 65 3.2 4.8 0.00 0.00 0.00 79 1010.5
20260504232323 15 68 3.2 4.8 0.00 0.00 0.00 80 1010.5
20260504231824 15 358 3.2 4.8 0.00 0.00 0.00 82 1010.6
20260504231327 15 241 0.0 3.2 0.00 0.00 0.00 81 1010.5
20260504230850 15 222 0.0 3.2 0.00 0.00 0.00 81 1010.7
20260504230323 15 222 0.0 4.8 0.00 0.00 0.00 81 1010.7
20260504225825 15 223 3.2 4.8 0.00 0.00 0.00 82 1010.8
20260504224819 16 141 0.0 1.6 0.00 0.00 0.00 82 1010.8
20260504224344 16 141 1.6 3.2 0.00 0.00 0.00 81 1010.7
20260504223825 16 148 1.6 3.2 0.00 0.00 0.00 81 1010.6
20260504223327 16 308 0.0 1.6 0.00 0.00 0.00 81 1010.6
20260504222829 16 308 0.0 0.0 0.00 0.00 0.00 80 1010.7
20260504222333 16 308 0.0 0.0 0.00 0.00 0.00 79 1010.8
20260504221813 16 308 0.0 0.0 0.00 0.00 0.00 78 1010.8
20260504220823 16 307 0.0 0.0 0.00 0.00 0.00 78 1010.9
20260504220325 16 308 0.0 0.0 0.00 0.00 0.00 78 1010.8
20260504215826 16 308 0.0 0.0 0.00 0.00 0.00 78 1010.9
20260504215326 16 308 0.0 0.0 0.00 0.00 0.00 77 1011.0
20260504214826 16 308 0.0 0.0 0.00 0.00 0.00 77 1010.9
20260504214326 16 308 0.0 0.0 0.00 0.00 0.00 77 1010.9
20260504213828 16 308 0.0 0.0 0.00 0.00 0.00 76 1011.0
20260504213330 16 308 0.0 0.0 0.00 0.00 0.00 77 1010.9
20260504212813 16 308 0.0 0.0 0.00 0.00 0.00 77 1010.9
20260504212316 16 308 0.0 1.6 0.00 0.00 0.00 76 1011.0
20260504211818 16 308 0.0 1.6 0.00 0.00 0.00 75 1010.9
20260504211322 16 308 0.0 0.0 0.00 0.00 0.00 76 1011.0
20260504210824 16 308 0.0 0.0 0.00 0.00 0.00 75 1011.0
20260504210328 16 308 0.0 0.0 0.00 0.00 0.00 75 1011.0
20260504205828 16 307 0.0 0.0 0.00 0.00 0.00 74 1011.0
20260504205329 16 308 0.0 0.0 0.00 0.00 0.00 74 1011.0
20260504204829 16 308 0.0 0.0 0.00 0.00 0.00 74 1011.0
20260504204330 16 308 0.0 0.0 0.00 0.00 0.00 74 1011.0
20260504203812 16 308 0.0 0.0 0.00 0.00 0.00 73 1011.0
20260504203315 16 308 0.0 0.0 0.00 0.00 0.00 73 1011.0
20260504202816 17 308 0.0 0.0 0.00 0.00 0.00 73 1011.0
20260504202320 17 308 0.0 0.0 0.00 0.00 0.00 72 1010.9
20260504201821 17 307 0.0 1.6 0.00 0.00 0.00 71 1010.9
20260504201324 17 308 0.0 3.2 0.00 0.00 0.00 70 1010.9
20260504200825 17 308 0.0 3.2 0.00 0.00 0.00 68 1010.9
20260504200326 17 295 0.0 1.6 0.00 0.00 0.00 68 1010.8
20260504195828 17 295 0.0 1.6 0.00 0.00 0.00 68 1010.9
20260504195330 18 295 0.0 1.6 0.00 0.00 0.00 67 1010.9
20260504194814 18 295 0.0 1.6 0.00 0.00 0.00 67 1011.0
20260504194318 18 295 0.0 1.6 0.00 0.00 0.00 67 1011.0
20260504193828 18 295 0.0 1.6 0.00 0.00 0.00 67 1011.0
20260504193331 18 295 0.0 1.6 0.00 0.00 0.00 67 1011.1
20260504192815 18 295 0.0 0.0 0.00 0.00 0.00 67 1011.0
20260504192319 18 295 0.0 0.0 0.00 0.00 0.00 66 1011.0
20260504191823 18 295 0.0 0.0 0.00 0.00 0.00 66 1011.0
20260504191327 18 295 0.0 0.0 0.00 0.00 0.00 65 1011.0
20260504190831 18 295 0.0 0.0 0.00 0.00 0.00 64 1010.9
20260504190316 19 295 0.0 0.0 0.00 0.00 0.00 64 1010.9
20260504185820 19 295 0.0 0.0 0.00 0.00 0.00 63 1010.8
20260504185321 19 295 0.0 0.0 0.00 0.00 0.00 62 1010.8
20260504184821 20 295 0.0 0.0 0.00 0.00 0.00 61 1010.8
20260504184321 20 295 0.0 0.0 0.00 0.00 0.00 61 1010.8
20260504183822 20 295 0.0 1.6 0.00 0.00 0.00 60 1010.8
20260504183323 20 295 0.0 1.6 0.00 0.00 0.00 60 1010.7
20260504182813 20 295 0.0 1.6 0.00 0.00 0.00 59 1010.7
20260504182313 21 295 0.0 1.6 0.00 0.00 0.00 58 1010.7
20260504181815 21 295 0.0 3.2 0.00 0.00 0.00 58 1010.6
20260504181315 21 295 0.0 3.2 0.00 0.00 0.00 57 1010.7
20260504180819 21 296 1.6 4.8 0.00 0.00 0.00 57 1010.7
20260504180320 21 326 1.6 4.8 0.00 0.00 0.00 56 1010.6
20260504175823 21 324 1.6 6.4 0.00 0.00 0.00 55 1010.6
20260504175326 22 335 1.6 6.4 0.00 0.00 0.00 55 1010.6
20260504174849 22 308 1.6 6.4 0.00 0.00 0.00 54 1010.6
20260504174331 22 305 1.6 6.4 0.00 0.00 0.00 54 1010.5
20260504173848 22 278 0.0 6.4 0.00 0.00 0.00 53 1010.5
20260504173326 22 315 3.2 6.4 0.00 0.00 0.00 52 1010.5
20260504172812 23 295 1.6 6.4 0.00 0.00 0.00 51 1010.5
20260504171817 23 326 1.6 4.8 0.00 0.00 0.00 50 1010.4
20260504171314 23 334 1.6 8.0 0.00 0.00 0.00 49 1010.4
20260504170816 23 314 3.2 11.3 0.00 0.00 0.00 49 1010.5
20260504170319 23 280 4.8 11.3 0.00 0.00 0.00 50 1010.5
20260504160328 23 291 4.8 12.9 0.00 0.00 0.00 47 1010.5
20260504150828 23 248 9.7 24.1 0.00 0.00 0.00 43 1010.6
20260504150329 24 279 8.0 25.7 0.00 0.00 0.00 43 1010.7
20260504141313 25 205 6.4 24.1 0.00 0.00 0.00 42 1010.8
20260504140816 25 252 9.7 24.1 0.00 0.00 0.00 42 1010.9
20260504140319 25 263 8.0 20.9 0.00 0.00 0.00 45 1010.9
20260504130820 25 250 4.8 12.9 0.00 0.00 0.00 46 1011.2
20260504130323 25 250 1.6 14.5 0.00 0.00 0.00 47 1011.2
20260504110327 23 204 3.2 17.7 0.00 0.00 0.00 52 1012.1
20260504100322 21 274 6.4 14.5 0.00 0.00 0.00 54 1012.7